Printer-friendly version

IAU Minor Planet Center

Minor Planet Center

MPEC 2006-M20 : 2006 MZ1

The following Minor Planet Electronic Circular may be linked-to from your own Web pages, but must not otherwise be redistributed electronically.


Read MPEC 2006-M19 Read MPEC 2006-M21


M.P.E.C. 2006-M20                                Issued 2006 June 21, 13:44 UT

     The Minor Planet Electronic Circulars contain information on unusual
         minor planets and routine data on comets.  They are published
   on behalf of Commission 20 of the International Astronomical Union by the
          Minor Planet Center, Smithsonian Astrophysical Observatory,
                          Cambridge, MA 02138, U.S.A.

                  Supported in part by the Brinson Foundation
                  Supported in part by the TABASGO Foundation
             Prepared using the Tamkin Foundation Computer Network

                              MPC@CFA.HARVARD.EDU
          URL http://cfa-www.harvard.edu/iau/mpc.html  ISSN 1523-6714

                                   2006 MZ1

Observations:
     K06M01Z* C2006 06 20.36639 21 27 11.16 -06 38 22.1          19.8 V EM020703
     K06M01Z  C2006 06 20.37328 21 27 13.46 -06 38 01.7          19.3 V EM020703
     K06M01Z  C2006 06 20.38016 21 27 15.80 -06 37 42.7          19.3 V EM020703
     K06M01Z  C2006 06 20.38703 21 27 18.07 -06 37 23.7          19.1 V EM020703
     K06M01Z  C2006 06 20.41861 21 27 28.58 -06 35 53.4          19.1 V EM020703
     K06M01Z  C2006 06 20.41948 21 27 28.87 -06 35 51.3          19.0 V EM020703
     K06M01Z  C2006 06 20.42035 21 27 29.23 -06 35 49.0          19.0 V EM020703
     K06M01Z  C2006 06 20.42122 21 27 29.48 -06 35 46.2          19.0 V EM020703
     K06M01Z  C2006 06 20.44369 21 27 36.96 -06 34 41.7                 EM020703
     K06M01Z  C2006 06 20.44456 21 27 37.30 -06 34 39.8                 EM020703
     K06M01Z  C2006 06 20.44545 21 27 37.59 -06 34 36.1                 EM020703
     K06M01Z  C2006 06 20.44632 21 27 37.93 -06 34 36.8          18.5 V EM020703
     K06M01Z  C2006 06 21.00433 21 30 55.12 -06 07 41.9          19   R EM020461
     K06M01Z  C2006 06 21.00662 21 30 55.93 -06 07 34.9                 EM020461
     K06M01Z  C2006 06 21.00891 21 30 56.70 -06 07 27.9                 EM020461
     K06M01Z 2C2006 06 21.33240 21 32 53.57 -05 51 16.9          18.9 R EM020H06
     K06M01Z  C2006 06 21.34276 21 32 57.46 -05 50 45.5          19.4 V EM020703
     K06M01Z 2C2006 06 21.34320 21 32 57.46 -05 50 44.2          18.8 R EM020H06
     K06M01Z 5C2006 06 21.34514 21 32 58.46 -05 50 39.2          18.8 R EM020673
     K06M01Z  C2006 06 21.36315 21 33 04.66 -05 49 43.9          18.9 R EM020854
     K06M01Z  C2006 06 21.36366 21 33 04.85 -05 49 42.7          19.2 V EM020703
     K06M01Z  C2006 06 21.36699 21 33 05.98 -05 49 32.5          19.0 R EM020854
     K06M01Z 5C2006 06 21.37037 21 33 07.44 -05 49 22.4                 EM020673
     K06M01Z  C2006 06 21.37082 21 33 07.35 -05 49 20.8          18.9 R EM020854
     K06M01Z  C2006 06 21.37324 21 33 08.19 -05 49 13.5          19.1 V EM020703
     K06M01Z 5C2006 06 21.38079 21 33 11.15 -05 48 51.2                 EM020673
     K06M01Z 5C2006 06 21.39109 21 33 14.73 -05 48 20.8                 EM020673

Observer details:
461 Szeged University, Piszkesteto Stn. (Konkoly).  Observer K. Sarneczky.
    0.60-m Schmidt + CCD.
673 Table Mountain Observatory, Wrightwood.  Observer J. Young.  0.61-m f/16
    Cassegrain + CCD.
703 Catalina Sky Survey.  Observers R. E. Hill, A. R. Gibbs.  Measurers
    E. C. Beshore, E. J. Christensen, G. J. Garradd, A. R. Gibbs, A. D. Grauer,
    R. E. Hill, R. A. Kowalski, S. M. Larson, R. H. McNaught.  0.68-m Schmidt
    + CCD.
854 Sabino Canyon Observatory, Tucson.  Observer J. E. McGaha.  0.36-m f/10.0
    Schmidt-Cassegrain + CCD.
H06 New Mexico Skies Observatory.  Observer R. Hutsebaut.  0.25-m reflector
    + CCD.

Orbital elements:
2006 MZ1                                            PHA, Earth MOID = 0.0128 AU
Epoch 2006 Mar. 6.0 TT = JDT 2453800.5                  MPC
M 270.63689              (2000.0)            P               Q
n   0.50677947     Peri.  138.46694     +0.99561598     -0.08978810
a   1.5580810      Node   226.70481     +0.07347628     +0.92416395
e   0.4778233      Incl.    2.06365     +0.05787961     +0.37129380
P   1.94           H   20.3           G   0.15           U   9
Residuals in seconds of arc
060620 703  0.0   0.4-    060620 703  0.2+  0.1-    060621 673  0.1-  0.5-
060620 703  0.1-  0.5+    060620 703 (0.1+  1.0+)   060621 854  0.1-  0.1-
060620 703  0.5+  0.0     060620 703 (0.8+  2.2-)   060621 703  0.1+  0.3-
060620 703  0.1+  0.5-    060621 461  0.1+  0.3-    060621 854  0.6-  0.2-
060620 703  0.6-  0.2+    060621 461  0.3+  0.0     060621 673  0.7+  0.6+
060620 703  0.6-  0.2-    060621 461  0.1-  0.2+    060621 854  0.3-  0.0
060620 703  0.5+  0.4-    060621 H06  1.4-  0.3-    060621 703  0.4-  0.1+
060620 703  0.1-  0.1-    060621 703  0.2-  0.4-    060621 673  1.2+  0.5+
060620 703  0.5-  0.4+    060621 H06  0.2-  0.0     060621 673  0.4+  0.1-

Ephemeris:
2006 MZ1                 a,e,i = 1.56, 0.48, 2                   q = 0.8136
Date    TT    R. A. (2000) Decl.     Delta      r     Elong.  Phase     V
2006 06 14    20 55.42   -10 49.3    0.292    1.221   129.2    40.1    19.6
2006 06 24    21 50.15   -03 25.7    0.212    1.146   123.3    47.8    19.0
2006 07 04    23 21.72   +09 27.8    0.159    1.073   106.4    65.4    18.8
2006 07 14    01 37.13   +23 58.8    0.155    1.002    80.3    90.9    19.5
2006 07 24    03 41.36   +29 39.4    0.198    0.938    61.5   107.9    20.7

Timothy B. Spahr             (C) Copyright 2006 MPC           M.P.E.C. 2006-M20

Read MPEC 2006-M19 Read MPEC 2006-M21


Our Web policy. Index to the CBAT/MPC/ICQ pages.


Valid HTML 4.01!